カタログに戻る

FENGYUN 1C DEB

LostSSO
NORAD 31425·DEBRIS·🇨🇳 China

打ち上げ May 10, 1999 から Taiyuan Satellite Launch Center

Loading…

次のパス (今後24時間)

TLE

古いSource: Space-Track

元期: Feb 19, 2008, 16:55 UTC

1 31425U 99025BTM 08050.70542971  .00000357  00000-0  27412-3 0  9992
2 31425  98.7911  27.3891 0081487 148.5974 209.2450 13.97702990 43992

AllMySatでFENGYUN 1C DEBをリアルタイム追跡

Download on the App Store